Home > Weather > Mosjøen > Past weeks

Flag for Norway Past Weather in Mosjøen, Norway — Yesterday and Last 2 Weeks

Now
62 °F

Refreshingly cool.


Feels Like: 62 °F
Forecast: 55 / 71 °F
Wind: 5 mph from North

Location: Mosjoen Kjaerstad

Current Time: Jun 29, 2016 at 12:57:54 PM

Latest Report: Jun 29, 2016 at 12:00 PM


Visibility: N/A

Pressure: 29.89 "Hg

Humidity: 51%

Dew Point: 44 °F

Location of MosjøenLocation

Past Weather in Mosjøen — Graph

°F

Mosjøen Temperature Yesterday

Maximum temperature yesterday: 56 °F (at 11:00 AM)
Minimum temperature yesterday: 53 °F (at 11:00 PM)
Average temperature yesterday: 55 °F

High & Low Weather Summary for the Past Weeks

 TemperatureHumidityPressure
High77 °F (Jun 26, 6:00 PM)94% (Jun 28, 1:00 AM)30.14 "Hg (Jun 28, 1:00 AM)
Low33 °F (Jun 15, 4:00 AM)31% (Jun 25, 2:00 PM)29.61 "Hg (Jun 27, 7:00 PM)
Average55 °F69%29.85 "Hg
* Reported Jun 14 11:00 AM — Jun 29 11:00 AM, Mosjøen, Weather by CustomWeather, © 2016

Note: Actual official high and low records may vary slightly from our data, if they occured in-between our weather recording intervals... More about our weather records

Advertising

Mosjøen Weather History for the Previous 24 Hours

Scroll right to see more
 ConditionsComfort  
Time TempWeatherWind HumidityBarometerVisibility
11:00 AM
Wed, Jun 29
62 °FRefreshingly cool.3 mph49%29.90 "HgN/A
10:00 AM58 °FRefreshingly cool.3 mph58%29.91 "HgN/A
9:00 AM57 °FCool.3 mph63%29.92 "HgN/A
8:00 AM55 °FCool.3 mph69%29.93 "HgN/A
7:00 AM54 °FCool.1 mph79%29.93 "HgN/A
6:00 AM50 °FCool.1 mph91%29.93 "HgN/A
5:00 AM47 °FCool.1 mph92%29.93 "HgN/A
4:00 AM48 °FCool.1 mph92%29.93 "HgN/A
3:00 AM49 °FCool.No wind91%29.92 "HgN/A
2:00 AM50 °FCool.1 mph90%29.92 "HgN/A
1:00 AM51 °FCool.No wind88%29.92 "HgN/A
12:00 AM52 °FCool.1 mph84%29.91 "HgN/A
11:00 PM
Tue, Jun 28
53 °FCool.1 mph77%29.91 "HgN/A
10:00 PM55 °FCool.2 mph72%29.90 "HgN/A
9:00 PM56 °FCool.2 mph71%29.89 "HgN/A
8:00 PM55 °FCool.3 mph74%29.88 "HgN/A
6:00 PM55 °FCool.3 mph79%29.88 "HgN/A
5:00 PM55 °FCool.3 mph79%29.87 "HgN/A
4:00 PM54 °FCool.3 mph79%29.86 "HgN/A
3:00 PM55 °FCool.3 mph79%29.85 "HgN/A
2:00 PM55 °FCool.1 mph81%29.85 "HgN/A
1:00 PM56 °FCool.3 mph75%29.83 "HgN/A
12:00 PM55 °FCool.2 mph81%29.81 "HgN/A
Weather by CustomWeather, © 2016

See weather overviewHow to use our weather pages